Date String (YYYY-MM-DD hh:mm:ss) UTC,Instrument flags,Ambient pressure (hPa),Sample flow (lpm),Bypass flow (lpm),Sample temperature (°C),Ambient temperature (°C),ASC tube jacket temperature (°C),LED temperature (°C),Box temperature (°C),Sample RH (%),Span deviation,Mass concentration (μg/m³),Mass concentration (μg/m³),Mass concentration (μg/m³)
DateTimeUTC,F1_M11,P_M11,Q1_M11,Q2_M11,T1_M11,T2_M11,T3_M11,T4_M11,T5_M11,U1_M11,ZSPAN_M11,X2_M11,X0_M11,X1_M11
2022-08-05 12:00:00,,0826.5,5.01,0.00,29.8,28.7,00.0,38.5,31.8,24.9,0001.5,0010.30,0020.13,0008.29
2022-08-05 12:01:00,,0826.5,5.00,0.00,29.8,28.8,00.0,38.5,31.7,25.1,0001.8,0010.34,0020.18,0008.28
2022-08-05 12:02:00,,0826.5,5.00,0.00,29.8,28.8,00.0,38.5,31.7,25.6,0001.8,0010.32,0020.55,0008.26
2022-08-05 12:03:00,,0826.5,5.00,0.00,29.8,28.6,00.0,38.5,31.7,25.6,0001.7,0010.33,0021.31,0008.27
2022-08-05 12:04:00,,0826.5,5.01,0.00,29.8,27.9,00.0,38.5,31.6,25.6,0001.9,0010.29,0021.93,0008.27
2022-08-05 12:05:00,,0826.6,5.00,0.00,29.8,27.6,00.0,38.5,31.6,26.8,0001.4,0010.27,0021.88,0008.27
2022-08-05 12:06:00,,0826.5,5.01,0.00,29.7,27.6,00.0,38.5,31.5,26.6,0001.6,0010.26,0021.67,0008.27
2022-08-05 12:07:00,,0826.5,4.99,0.00,29.6,27.7,00.0,38.5,31.5,26.4,0001.7,0010.35,0022.54,0008.29
2022-08-05 12:08:00,,0826.5,5.01,0.00,29.6,27.8,00.0,38.5,31.5,26.5,0001.4,0010.42,0022.94,0008.29
2022-08-05 12:09:00,,0826.5,4.99,0.00,29.6,27.9,00.0,38.5,31.5,26.7,0000.9,0010.38,0022.77,0008.28
2022-08-05 12:10:00,,0826.5,5.00,0.00,29.6,28.0,00.0,38.5,31.5,26.5,0000.6,0010.38,0022.68,0008.29
2022-08-05 12:11:00,,0826.6,5.01,0.00,29.6,28.2,00.0,38.5,31.6,26.4,0000.6,0010.36,0023.23,0008.29
2022-08-05 12:12:00,,0826.6,4.99,0.00,29.7,28.3,00.0,38.5,31.6,26.5,0000.6,0010.34,0023.54,0008.29
2022-08-05 12:13:00,,0826.7,5.00,0.00,29.7,28.4,00.0,38.5,31.6,26.2,0000.9,0010.34,0022.70,0008.30
2022-08-05 12:14:00,,0826.7,5.00,0.00,29.7,28.5,00.0,38.5,31.6,26.3,0001.1,0010.30,0022.56,0008.28
2022-08-05 12:15:00,,0826.7,5.00,0.00,29.7,28.6,00.0,38.5,31.7,26.9,0001.1,0010.33,0021.91,0008.27
2022-08-05 12:16:00,,0826.7,5.00,0.00,29.7,28.6,00.0,38.5,31.7,28.4,0001.4,0010.35,0021.67,0008.23
2022-08-05 12:17:00,,0826.7,5.00,0.00,29.8,28.7,00.0,38.5,31.8,28.6,0001.7,0010.35,0021.39,0008.20
2022-08-05 12:18:00,,0826.6,5.00,0.00,29.8,28.8,00.0,38.5,31.8,29.3,0001.6,0010.34,0021.62,0008.16
2022-08-05 12:19:00,,0826.7,5.01,0.00,29.8,28.8,00.0,38.5,31.8,29.2,0001.9,0010.37,0023.82,0008.14
2022-08-05 12:20:00,,0826.7,5.00,0.00,29.9,28.9,00.0,38.6,31.8,30.1,0002.2,0010.49,0025.03,0008.13
2022-08-05 12:21:00,,0826.7,5.00,0.00,29.9,28.9,00.0,38.6,31.9,30.8,0002.5,0010.56,0027.60,0008.08
2022-08-05 12:22:00,,0826.7,5.00,0.00,29.9,28.5,00.0,38.6,31.8,30.8,0002.7,0010.59,0028.13,0008.03
2022-08-05 12:23:00,,0826.7,5.00,0.00,29.8,27.6,00.0,38.5,31.5,30.6,0003.0,0010.64,0028.37,0007.98
2022-08-05 12:24:00,,0826.7,5.01,0.00,29.7,27.1,00.0,38.5,31.4,30.8,0002.7,0010.75,0029.40,0007.95
2022-08-05 12:25:00,,0826.7,4.98,0.00,29.6,27.0,00.0,38.5,31.3,31.7,0002.7,0010.85,0029.28,0007.92
2022-08-05 12:26:00,,0826.7,5.01,0.00,29.6,27.1,00.0,38.4,31.3,32.0,0002.8,0010.92,0030.77,0007.88
2022-08-05 12:27:00,,0826.8,5.00,0.00,29.5,27.3,00.0,38.4,31.3,31.3,0003.0,0010.96,0033.15,0007.87
2022-08-05 12:28:00,,0826.8,4.99,0.00,29.5,27.5,00.0,38.4,31.3,31.1,0002.7,0010.95,0034.84,0007.86
2022-08-05 12:29:00,,0826.8,5.01,0.00,29.5,27.6,00.0,38.4,31.4,31.4,0002.5,0010.92,0035.06,0007.85
2022-08-05 12:30:00,,0826.8,4.99,0.00,29.5,27.8,00.0,38.4,31.4,32.1,0002.5,0010.90,0033.28,0007.83
2022-08-05 12:31:00,,0826.8,5.01,0.00,29.5,27.9,00.0,38.4,31.4,32.4,0002.4,0010.88,0033.44,0007.81
2022-08-05 12:32:00,,0826.7,5.00,0.00,29.5,28.1,00.0,38.4,31.4,32.3,0002.4,0010.86,0032.60,0007.81
2022-08-05 12:33:00,,0826.8,5.00,0.00,29.5,28.2,00.0,38.4,31.5,32.3,0002.3,0010.96,0033.30,0007.81
2022-08-05 12:34:00,,0826.8,5.01,0.00,29.6,28.3,00.0,38.4,31.5,31.7,0002.0,0011.02,0034.04,0007.81
2022-08-05 12:35:00,,0826.8,5.00,0.00,29.6,28.4,00.0,38.4,31.6,31.7,0002.1,0010.92,0033.26,0007.78
2022-08-05 12:36:00,,0826.8,4.99,0.00,29.6,28.5,00.0,38.4,31.6,31.3,0002.0,0010.86,0032.90,0007.78
2022-08-05 12:37:00,,0826.8,5.01,0.00,29.6,28.6,00.0,38.4,31.6,31.1,0001.8,0010.88,0032.00,0007.78
2022-08-05 12:38:00,,0826.9,5.00,0.00,29.7,28.6,00.0,38.4,31.7,30.9,0001.7,0010.88,0029.90,0007.76
2022-08-05 12:39:00,,0826.9,5.00,0.00,29.7,28.7,00.0,38.4,31.7,31.6,0001.9,0010.97,0029.12,0007.75
2022-08-05 12:40:00,,0826.8,5.00,0.00,29.7,28.8,00.0,38.5,31.7,31.2,0002.1,0011.06,0029.70,0007.75
2022-08-05 12:41:00,,0826.8,5.01,0.00,29.7,28.8,00.0,38.5,31.8,31.2,0002.1,0011.10,0029.33,0007.77
2022-08-05 12:42:00,,0826.8,5.00,0.00,29.8,28.9,00.0,38.5,31.8,31.5,0002.1,0011.03,0028.87,0007.77
2022-08-05 12:43:00,,0826.8,5.00,0.00,29.8,28.9,00.0,38.5,31.8,31.1,0001.9,0011.04,0028.69,0007.78
2022-08-05 12:44:00,,0826.8,4.99,0.00,29.8,28.8,00.0,38.5,31.8,31.1,0002.0,0010.99,0027.46,0007.80
2022-08-05 12:45:00,,0827.0,5.00,0.00,29.8,28.0,00.0,38.5,31.6,31.6,0002.0,0010.94,0027.37,0007.80
2022-08-05 12:46:00,,0827.1,5.01,0.00,29.7,27.3,00.0,38.5,31.5,32.2,0002.0,0010.99,0028.88,0007.82
2022-08-05 12:47:00,,0826.9,5.00,0.00,29.7,27.2,00.0,38.4,31.4,32.3,0002.0,0011.03,0029.99,0007.84
2022-08-05 12:48:00,,0826.9,4.99,0.00,29.6,27.2,00.0,38.4,31.3,32.6,0002.2,0011.03,0030.76,0007.86
2022-08-05 12:49:00,,0826.8,5.00,0.00,29.6,27.3,00.0,38.4,31.3,32.4,0001.9,0011.02,0031.71,0007.89
2022-08-05 12:50:00,,0826.8,5.01,0.00,29.5,27.5,00.0,38.4,31.3,32.2,0001.7,0011.06,0031.99,0007.93
2022-08-05 12:51:00,,0826.8,4.99,0.00,29.5,27.7,00.0,38.4,31.3,32.1,0002.1,0011.05,0031.78,0007.94
2022-08-05 12:52:00,,0826.8,5.00,0.00,29.5,27.8,00.0,38.4,31.4,32.1,0002.2,0011.04,0032.17,0007.94
2022-08-05 12:53:00,,0826.8,5.00,0.00,29.5,28.0,00.0,38.4,31.4,32.0,0002.2,0011.12,0032.00,0007.94
2022-08-05 12:54:00,,0826.8,5.01,0.00,29.5,28.1,00.0,38.4,31.4,31.3,0002.5,0011.11,0031.72,0007.93
2022-08-05 12:55:00,,0826.8,5.00,0.00,29.5,28.2,00.0,38.4,31.5,31.1,0002.2,0011.14,0032.70,0007.93
2022-08-05 12:56:00,,0827.0,5.00,0.00,29.6,28.3,00.0,38.4,31.5,30.7,0002.2,0011.14,0032.48,0007.94
2022-08-05 12:57:00,,0826.9,5.01,0.00,29.6,28.4,00.0,38.4,31.5,30.3,0002.1,0011.14,0031.79,0007.93
2022-08-05 12:58:00,,0826.8,4.99,0.00,29.6,28.5,00.0,38.4,31.6,29.7,0002.2,0011.21,0031.82,0007.95
2022-08-05 12:59:00,,0827.1,5.00,0.00,29.6,28.6,00.0,38.4,31.6,29.8,0002.2,0011.19,0030.76,0007.97
